Home   Weather   Swansea   Past weeks
Flag for United Kingdom

Past Weather in Swansea, Wales, United Kingdom — Yesterday and Last 2 Weeks

Now
54 °F

Cool.


Feels Like: 51 °F
Forecast: 57 / 53 °F
Wind: 8 mph from Northeast

Location: Mumbles

Current Time: Oct 14, 2019 at 7:49:36 pm

Latest Report: Oct 14, 2019 at 7:00 pm


Visibility: N/A

Pressure: 29.61 "Hg

Humidity: 91%

Dew Point: 51 °F

Location of SwanseaLocation

Past Weather in Swansea — Graph

°F

Swansea Temperature Yesterday

Maximum temperature yesterday: 58 °F (at 7:00 pm)
Minimum temperature yesterday: 53 °F (at 7:00 am)
Average temperature yesterday: 56 °F

High & Low Weather Summary for the Past Weeks

 TemperatureHumidityPressure
High65 °F (Oct 1, 3:00 pm)99% (Oct 11, 1:00 pm)30.21 "Hg (Oct 11, 1:00 pm)
Low46 °F (Oct 2, 8:00 am)57% (Oct 2, 3:00 pm)29.41 "Hg (Oct 1, 6:00 am)
Average57 °F85%29.79 "Hg
* Reported Sep 29 6:00 pm — Oct 14 6:00 pm, Swansea. Weather by CustomWeather, © 2019

Note: Actual official high and low records may vary slightly from our data, if they occured in-between our weather recording intervals... More about our weather records

Advertising

Swansea Weather History for the Previous 24 Hours

Scroll right to see more
 ConditionsComfort  
Time TempWeatherWind HumidityBarometerVisibility
6:00 pm
Mon, Oct 14
55 °FCool.10 mph88%29.60 "HgN/A
5:00 pm55 °FCool.16 mph86%29.61 "HgN/A
4:00 pm54 °FCool.14 mph92%29.62 "HgN/A
3:00 pm54 °FCool.20 mph91%29.64 "HgN/A
2:00 pm55 °FCool.22 mph88%29.65 "HgN/A
1:00 pm56 °FCool.22 mph85%29.67 "HgN/A
12:00 pm56 °FCool.20 mph89%29.69 "HgN/A
11:00 am55 °FCool.21 mph93%29.71 "HgN/A
10:00 am55 °FCool.23 mph95%29.72 "HgN/A
9:00 am54 °FCool.22 mph97%29.72 "HgN/A
8:00 am55 °FCool.21 mph95%29.72 "HgN/A
7:00 am54 °FCool.22 mph95%29.73 "HgN/A
6:00 am55 °FCool.20 mph94%29.75 "HgN/A
5:00 am54 °FCool.17 mph93%29.77 "HgN/A
4:00 am55 °FCool.17 mph89%29.78 "HgN/A
3:00 am57 °FCool.15 mph84%29.80 "HgN/A
2:00 am57 °FCool.17 mph87%29.79 "HgN/A
1:00 am57 °FCool.20 mph88%29.79 "HgN/A
12:00 am56 °FCool.18 mph87%29.78 "HgN/A
11:00 pm
Sun, Oct 13
56 °FCool.15 mph87%29.79 "HgN/A
10:00 pm57 °FCool.16 mph78%29.79 "HgN/A
9:00 pm58 °FCool.17 mph76%29.78 "HgN/A
8:00 pm58 °FCool.18 mph74%29.76 "HgN/A
7:00 pm58 °FCool.18 mph79%29.74 "HgN/A
Weather by CustomWeather, © 2019

See weather overview